QPF
0.00 0.00 0.00 0.00 0.00 0.00 0.00 0.00 0.00 0.00 0.00 0.00 0.00 0.00 0.00 0.00 0.00 0.00 0.00 0.00 0.00 0.00 0.00 0.00 0.00 0.00 0.00 0.00 0.00 0.00 0.00 0.00 0.00 0.00 0.00 0.00 0.00 0.00 0.00 0.00 0.00 0.00 0.00 0.00 0.00
0.00 0.00 0.00 0.00 0.00 0.00 0.00 0.00 0.00 0.00 0.00 0.00 0.00 0.00 0.00 0.00 0.00 0.00 0.00 0.00 0.00 0.00 0.00 0.00 0.00 0.00 0.00 0.00 0.00 0.00 0.00 0.00 0.00 0.00 0.00 0.00 0.00 0.00 0.00 0.00 0.00 0.00 0.00 0.00 0.00
0.00 0.00 0.00 0.00 0.00 0.00 0.00 0.00 0.00 0.00 0.00 0.00 0.00 0.00 0.00 0.00 0.00 0.00 0.00 0.00 0.00 0.00 0.00 0.00 0.00 0.00 0.00 0.00 0.00 0.00 0.00 0.00 0.00 0.00 0.00 0.00 0.00 0.00 0.00 0.00 0.00 0.00 0.00 0.00 0.00
0.00 0.00 0.00 0.00 0.00 0.00 0.00 0.00 0.00 0.00 0.00 0.00 0.00 0.00 0.00 0.00 0.00 0.00 0.00 0.00 0.00 0.00 0.00 0.00 0.00 0.00 0.00 0.00 0.00 0.00 0.00 0.00 0.00 0.00 0.00 0.00 0.00 0.00 0.00 0.00 0.00 0.00 0.00 0.00 0.00
0.00 0.00 0.00 0.00 0.00 0.00 0.00 0.00 0.00 0.00 0.00 0.00 0.00 0.00 0.00 0.00 0.00 0.00 0.00 0.00 0.00 0.00 0.00 0.00 0.00 0.00 0.00 0.00 0.00 0.00 0.00 0.00 0.00 0.00 0.00 0.00 0.00 0.00 0.00 0.00 0.00 0.00 0.00 0.00 0.00
0.00 0.00 0.00 0.00 0.00 0.00 0.00 0.00 0.00 0.00 0.00 0.00 0.00 0.00 0.00 0.00 0.00 0.00 0.00 0.00 0.00 0.00 0.00 0.00 0.00 0.00 0.00 0.00 0.00 0.00 0.00 0.00 0.00 0.00 0.00 0.00 0.00 0.00 0.00 0.00 0.00 0.00 0.00 0.00 0.00
0.00 0.00 0.00 0.00 0.00 0.00 0.00 0.00 0.00 0.00 0.00 0.00 0.00 0.00 0.00 0.00 0.00 0.00 0.00 0.00 0.00 0.00 0.00 0.00 0.00 0.00 0.00 0.00 0.00 0.00 0.00 0.00 0.00 0.00 0.00 0.00 0.00 0.00 0.00 0.00 0.00 0.00 0.00 0.00 0.00
0.00 0.00 0.00 0.00 0.00 0.00 0.00 0.00 0.00 0.00 0.00 0.00 0.00 0.00 0.00 0.00 0.00 0.00 0.00 0.00 0.00 0.00 0.00 0.00 0.00 0.00 0.00 0.00 0.00 0.00 0.00 0.00 0.00 0.00 0.00 0.00 0.00 0.00 0.00 0.00 0.00 0.00 0.00 0.00 0.00
0.00 0.00 0.00 0.00 0.00 0.00 0.00 0.00 0.00 0.00 0.00 0.00 0.00 0.00 0.00 0.00 0.00 0.00 0.00 0.00 0.00 0.00 0.00 0.00 0.00 0.00 0.00 0.00 0.00 0.00 0.00 0.00 0.00 0.00 0.00 0.00 0.00 0.00 0.00 0.00 0.00 0.00 0.00 0.00 0.00
0.00 0.00 0.00 0.00 0.00 0.00 0.00 0.00 0.00 0.00 0.00 0.00 0.00 0.00 0.00 0.00 0.00 0.00 0.00 0.00 0.00 0.00 0.00 0.00 0.00 0.00 0.00 0.00 0.00 0.00 0.00 0.00 0.00 0.00 0.00 0.00 0.00 0.00 0.00 0.00 0.00 0.00 0.00 0.00 0.00
0.00 0.00 0.00 0.00 0.00 0.00 0.00 0.00 0.00 0.00 0.00 0.00 0.00 0.00 0.00 0.00 0.00 0.00 0.00 0.00 0.00 0.00 0.00 0.00 0.00 0.00 0.00 0.00 0.00 0.00 0.00 0.00 0.00 0.00 0.00 0.00 0.00 0.00 0.00 0.00 0.00 0.00 0.00 0.00 0.00
0.00 0.00 0.00 0.00 0.00 0.00 0.00 0.00 0.00 0.00 0.00 0.00 0.00 0.00 0.00 0.00 0.00 0.00 0.00 0.00 0.00 0.00 0.00 0.00 0.00 0.00 0.00 0.00 0.00 0.00 0.00 0.00 0.00 0.00 0.00 0.00 0.00 0.00 0.00 0.00 0.00 0.00 0.00 0.00 0.00
0.00 0.00 0.00 0.00 0.00 0.00 0.00 0.00 0.00 0.00 0.00 0.00 0.00 0.00 0.00 0.00 0.00 0.00 0.00 0.00 0.00 0.00 0.00 0.00 0.00 0.00 0.00 0.00 0.00 0.00 0.00 0.00 0.00 0.00 0.00 0.00 0.00 0.00 0.00 0.00 0.00 0.00 0.00 0.00 0.00
0.00 0.00 0.00 0.00 0.00 0.00 0.00 0.00 0.00 0.00 0.00 0.00 0.00 0.00 0.00 0.00 0.00 0.00 0.00 0.00 0.00 0.00 0.00 0.00 0.00 0.00 0.00 0.00 0.00 0.00 0.00 0.00 0.00 0.00 0.00 0.00 0.00 0.00 0.00 0.00 0.00 0.00 0.00 0.00 0.00
0.00 0.00 0.00 0.00 0.00 0.00 0.00 0.00 0.00 0.00 0.00 0.00 0.00 0.00 0.00 0.00 0.00 0.00 0.00 0.00 0.00 0.00 0.00 0.00 0.00 0.00 0.00 0.00 0.00 0.00 0.00 0.00 0.00 0.00 0.00 0.00 0.00 0.00 0.00 0.00 0.00 0.00 0.00 0.00 0.00
0.00 0.00 0.00 0.00 0.00 0.00 0.00 0.00 0.00 0.00 0.00 0.00 0.00 0.00 0.00 0.00 0.00 0.00 0.00 0.00 0.00 0.00 0.00 0.00 0.00 0.00 0.00 0.00 0.00 0.00 0.00 0.00 0.00 0.00 0.00 0.00 0.00 0.00 0.00 0.00 0.00 0.00 0.00 0.00 0.00
0.00 0.00 0.00 0.00 0.00 0.00 0.00 0.00 0.00 0.00 0.00 0.00 0.00 0.00 0.00 0.00 0.00 0.00 0.00 0.00 0.00 0.00 0.00 0.00 0.00 0.00 0.00 0.00 0.00 0.00 0.00 0.00 0.00 0.00 0.00 0.00 0.00 0.00 0.00 0.00 0.00 0.00 0.00 0.00 0.00
0.00 0.00 0.00 0.00 0.00 0.00 0.00 0.00 0.00 0.00 0.00 0.00 0.00 0.00 0.00 0.00 0.00 0.00 0.00 0.00 0.00 0.00 0.00 0.00 0.00 0.00 0.00 0.00 0.00 0.00 0.00 0.00 0.00 0.00 0.00 0.00 0.00 0.00 0.00 0.00 0.00 0.00 0.00 0.00 0.00
0.00 0.00 0.00 0.00 0.00 0.00 0.00 0.00 0.00 0.00 0.00 0.00 0.00 0.00 0.00 0.00 0.00 0.00 0.00 0.00 0.00 0.00 0.00 0.00 0.00 0.00 0.00 0.00 0.00 0.00 0.00 0.00 0.00 0.00 0.00 0.00 0.00 0.00 0.00 0.00 0.00 0.00 0.00 0.00 0.00
0.00 0.00 0.00 0.00 0.00 0.00 0.00 0.00 0.00 0.00 0.00 0.00 0.00 0.00 0.00 0.00 0.00 0.00 0.00 0.00 0.00 0.00 0.00 0.00 0.00 0.00 0.00 0.00 0.00 0.00 0.00 0.00 0.00 0.00 0.00 0.00 0.00 0.00 0.00 0.00 0.00 0.00 0.00 0.00 0.00
0.00 0.00 0.00 0.00 0.00 0.00 0.00 0.00 0.00 0.00 0.00 0.00 0.00 0.00 0.00 0.00 0.00 0.00 0.00 0.00 0.00 0.00 0.00 0.00 0.00 0.00 0.00 0.00 0.00 0.00 0.00 0.00 0.00 0.00 0.00 0.00 0.00 0.00 0.00 0.00 0.00 0.00 0.00 0.00 0.00
0.00 0.00 0.00 0.00 0.00 0.00 0.00 0.00 0.00 0.00 0.00 0.00 0.00 0.00 0.00 0.00 0.00 0.00 0.00 0.00 0.00 0.00 0.00 0.00 0.00 0.00 0.00 0.00 0.00 0.00 0.00 0.00 0.00 0.00 0.00 0.00 0.00 0.00 0.00 0.00 0.00 0.00 0.00 0.00 0.00
0.00 0.00 0.00 0.00 0.00 0.00 0.00 0.00 0.00 0.00 0.00 0.00 0.00 0.00 0.00 0.00 0.00 0.00 0.00 0.00 0.00 0.00 0.00 0.00 0.00 0.00 0.00 0.00 0.00 0.00 0.00 0.00 0.00 0.00 0.00 0.00 0.00 0.00 0.00 0.00 0.00 0.00 0.00 0.00 0.00
0.00 0.00 0.00 0.00 0.00 0.00 0.00 0.00 0.00 0.00 0.00 0.00 0.00 0.00 0.00 0.00 0.00 0.00 0.00 0.00 0.00 0.00 0.00 0.00 0.00 0.00 0.00 0.00 0.00 0.00 0.00 0.00 0.00 0.00 0.00 0.00 0.00 0.00 0.00 0.00 0.00 0.00 0.00 0.00 0.00
0.00 0.00 0.00 0.00 0.00 0.00 0.00 0.00 0.00 0.00 0.00 0.00 0.00 0.00 0.00 0.00 0.00 0.00 0.00 0.00 0.00 0.00 0.00 0.00 0.00 0.00 0.00 0.00 0.00 0.00 0.00 0.00 0.00 0.00 0.00 0.00 0.00 0.00 0.00 0.00 0.00 0.00 0.00 0.00 0.00
0.00 0.00 0.00 0.00 0.00 0.00 0.00 0.00 0.00 0.00 0.00 0.00 0.00 0.00 0.00 0.00 0.00 0.00 0.00 0.00 0.00 0.00 0.00 0.00 0.00 0.00 0.00 0.00 0.00 0.00 0.00 0.00 0.00 0.00 0.00 0.00 0.00 0.00 0.00 0.00 0.00 0.00 0.00 0.00 0.00
0.00 0.00 0.00 0.00 0.00 0.00 0.00 0.01 0.01 0.00 0.00 0.00 0.00 0.00 0.00 0.00 0.00 0.00 0.00 0.00 0.00 0.00 0.00 0.00 0.00 0.00 0.00 0.00 0.00 0.00 0.00 0.00 0.00 0.00 0.00 0.00 0.00 0.00 0.00 0.00 0.00 0.00 0.00 0.00 0.00
MSLP
1019.53 1019.08 1018.57 1018.09 1017.57 1016.99 1016.45 1015.89 1015.25 1014.75 1014.34 1013.88 1013.35 1012.72 1012.12 1011.50 1010.54 1010.28 1008.67 1007.34 1007.54 1008.15 1008.34 1008.78 1008.86 1008.81 1009.04 1008.65 1008.36 1008.10 1007.62 1007.19 1007.28 1007.73 1008.41 1009.70 1010.37 1011.60 1012.21 1012.66 1013.47 1013.94 1014.14 1015.03 1016.26
1019.58 1019.12 1018.63 1018.09 1017.53 1017.03 1016.43 1015.77 1015.21 1014.60 1014.10 1013.62 1013.11 1012.44 1011.84 1011.55 1010.53 1008.79 1007.17 1007.09 1007.46 1007.71 1007.99 1008.06 1008.26 1008.46 1008.24 1008.01 1007.92 1007.71 1007.26 1006.68 1006.85 1007.29 1008.21 1009.39 1010.17 1011.30 1012.20 1012.96 1013.94 1014.42 1015.06 1015.82 1016.46
1019.76 1019.19 1018.62 1018.01 1017.44 1016.86 1016.32 1015.72 1015.00 1014.45 1013.98 1013.55 1013.07 1012.39 1011.77 1011.39 1009.96 1007.67 1006.96 1007.17 1007.48 1007.45 1007.39 1007.49 1007.59 1007.67 1007.47 1007.45 1007.42 1007.29 1006.79 1006.87 1007.02 1007.38 1008.10 1009.27 1010.38 1011.24 1011.97 1012.79 1013.67 1014.16 1014.96 1015.69 1016.29
1019.83 1019.33 1018.72 1018.05 1017.34 1016.63 1016.00 1015.43 1014.90 1014.33 1013.70 1013.31 1012.94 1012.32 1011.66 1010.97 1009.27 1007.32 1007.17 1007.31 1007.57 1007.61 1007.49 1007.15 1007.19 1007.01 1006.69 1006.54 1006.68 1006.87 1006.99 1006.95 1007.36 1007.80 1008.49 1009.36 1010.45 1011.33 1012.07 1012.66 1013.18 1014.19 1014.91 1015.54 1016.15
1019.98 1019.38 1018.73 1018.05 1017.29 1016.54 1015.75 1014.98 1014.40 1013.99 1013.58 1013.10 1012.75 1012.31 1011.19 1010.25 1008.15 1007.23 1007.29 1007.48 1007.64 1007.82 1007.32 1006.82 1006.56 1006.44 1006.07 1006.20 1006.45 1006.61 1007.13 1007.52 1007.96 1008.46 1009.11 1009.89 1010.64 1011.58 1012.70 1013.06 1013.43 1014.40 1015.30 1015.66 1016.06
1019.91 1019.43 1018.80 1017.96 1017.08 1016.21 1015.40 1014.66 1014.01 1013.38 1013.03 1012.81 1012.63 1012.39 1011.49 1009.52 1007.17 1007.22 1007.42 1007.49 1007.30 1007.30 1007.03 1006.69 1006.21 1006.14 1005.94 1006.21 1006.37 1006.92 1007.43 1008.07 1008.47 1008.91 1009.48 1010.04 1011.15 1011.71 1013.41 1013.65 1014.12 1014.75 1015.30 1015.63 1016.00
1019.98 1019.27 1018.66 1017.93 1016.93 1015.97 1014.93 1014.11 1013.48 1012.81 1012.23 1012.15 1012.37 1012.21 1011.01 1007.98 1007.01 1007.41 1007.52 1007.32 1007.20 1007.11 1006.89 1006.58 1006.26 1006.05 1005.88 1006.12 1006.91 1007.14 1007.52 1008.33 1008.77 1009.12 1009.50 1009.98 1010.90 1012.01 1013.38 1013.96 1014.43 1014.98 1015.44 1015.83 1016.06
1020.07 1019.41 1018.60 1017.56 1016.66 1015.63 1014.53 1013.58 1012.88 1012.24 1011.65 1011.52 1011.95 1011.74 1009.59 1007.21 1007.19 1007.01 1007.00 1006.75 1006.90 1006.94 1006.76 1006.50 1006.40 1006.16 1005.93 1006.29 1006.55 1006.76 1007.30 1007.70 1008.47 1008.80 1009.31 1009.87 1010.20 1012.10 1013.28 1013.88 1014.41 1014.99 1015.50 1015.79 1015.92
1019.95 1019.31 1018.55 1017.65 1016.43 1015.27 1013.99 1013.00 1012.41 1012.12 1011.73 1011.73 1011.62 1011.05 1008.48 1006.96 1006.89 1006.25 1006.47 1006.26 1006.24 1006.39 1006.52 1006.29 1006.11 1005.96 1006.17 1005.88 1006.06 1006.63 1006.64 1007.30 1007.90 1008.26 1008.69 1009.56 1009.77 1011.37 1012.61 1013.25 1013.84 1014.31 1014.81 1015.19 1015.40
1019.89 1019.15 1018.38 1017.50 1016.36 1015.17 1013.55 1012.44 1012.11 1012.07 1011.99 1011.77 1011.18 1010.95 1007.82 1006.86 1006.36 1006.14 1006.27 1006.21 1005.89 1005.86 1006.12 1006.01 1005.76 1005.57 1005.74 1005.43 1004.94 1005.58 1006.21 1006.73 1006.90 1007.45 1008.21 1008.86 1009.25 1010.58 1011.73 1012.39 1012.90 1013.43 1013.79 1014.19 1014.54
1020.00 1019.19 1018.34 1017.38 1016.53 1015.23 1013.62 1012.42 1012.84 1012.49 1012.19 1011.24 1010.66 1009.18 1007.77 1007.21 1006.56 1006.00 1005.93 1005.93 1005.73 1005.41 1005.06 1005.19 1004.84 1004.38 1004.39 1004.52 1004.75 1004.90 1005.51 1005.85 1006.28 1006.75 1007.51 1007.86 1008.45 1009.59 1010.78 1011.54 1011.96 1012.42 1012.86 1013.22 1013.59
1020.06 1019.26 1018.46 1017.58 1016.72 1015.84 1014.72 1015.35 1017.17 1017.65 1014.42 1010.99 1010.12 1009.44 1008.30 1008.12 1007.15 1005.89 1005.75 1005.41 1005.29 1004.46 1004.57 1004.97 1003.59 1003.60 1004.08 1004.59 1004.66 1004.84 1005.06 1005.40 1005.95 1006.48 1007.06 1007.34 1007.50 1008.56 1009.58 1009.90 1010.56 1011.09 1011.66 1012.12 1012.68
1020.04 1019.31 1018.68 1017.58 1016.72 1016.56 1016.84 1017.18 1017.68 1017.32 1015.67 1010.49 1009.01 1007.90 1007.06 1007.37 1006.42 1005.35 1005.34 1004.89 1004.52 1004.18 1003.76 1003.18 1002.84 1003.51 1003.77 1004.12 1004.32 1004.42 1004.42 1004.78 1005.26 1006.13 1006.70 1006.85 1006.70 1007.51 1008.36 1009.14 1009.92 1010.26 1010.62 1011.04 1011.57
1020.16 1019.54 1018.93 1017.87 1017.14 1017.75 1017.25 1017.57 1017.41 1017.11 1014.68 1009.85 1008.12 1006.43 1006.34 1006.10 1005.06 1004.42 1004.42 1004.12 1004.29 1003.74 1003.88 1003.46 1003.30 1003.08 1003.17 1003.26 1003.60 1003.72 1004.00 1004.53 1005.09 1005.41 1005.52 1006.28 1005.26 1005.79 1006.40 1007.47 1008.46 1009.02 1009.47 1009.92 1010.62
1019.98 1019.49 1019.07 1018.72 1018.58 1017.94 1017.45 1017.22 1016.93 1016.67 1013.00 1008.58 1006.93 1005.96 1005.82 1005.11 1004.21 1003.81 1003.50 1003.75 1003.38 1003.39 1003.53 1002.69 1002.79 1002.77 1002.52 1002.09 1003.04 1003.24 1003.63 1004.21 1004.73 1005.05 1005.33 1005.63 1005.43 1003.89 1005.04 1005.80 1006.35 1007.25 1007.95 1008.63 1009.44
1019.81 1019.28 1018.94 1018.77 1018.75 1017.94 1017.57 1016.96 1016.49 1015.36 1011.39 1008.05 1006.90 1006.33 1005.95 1005.25 1004.23 1003.73 1003.53 1003.38 1003.26 1003.38 1003.30 1002.56 1002.79 1002.26 1001.49 1002.12 1002.53 1003.31 1003.78 1004.55 1005.01 1005.07 1004.70 1004.46 1004.47 1002.17 1003.15 1002.98 1003.95 1005.49 1006.62 1007.40 1008.33
1019.71 1019.08 1018.71 1018.59 1018.09 1017.77 1017.26 1016.33 1015.79 1013.57 1010.69 1009.47 1008.42 1007.69 1007.03 1005.53 1004.47 1003.73 1003.21 1002.85 1002.36 1002.83 1002.72 1002.63 1002.45 1002.06 1001.95 1001.92 1002.43 1002.44 1002.75 1003.84 1004.24 1004.55 1003.81 1004.25 1004.00 1001.55 1001.44 1001.80 1002.08 1003.06 1004.77 1006.05 1007.27
1019.49 1018.64 1018.56 1018.32 1018.01 1017.66 1016.80 1016.02 1014.59 1012.41 1011.31 1010.92 1009.89 1008.59 1007.40 1006.69 1004.98 1003.89 1003.45 1002.69 1002.19 1001.72 1001.97 1001.77 1002.03 1001.49 1001.01 1000.73 1000.80 1001.49 1001.67 1002.57 1003.01 1003.20 1003.23 1004.00 1002.47 1000.49 1000.37 1000.69 1001.39 1002.06 1003.48 1005.00 1006.23
1019.37 1018.61 1018.19 1017.80 1017.84 1017.34 1016.40 1015.50 1014.13 1013.83 1012.92 1011.81 1010.54 1009.45 1008.26 1007.59 1007.01 1005.10 1003.71 1002.75 1001.83 1001.15 1000.95 1001.17 1000.75 1000.66 1000.55 1000.42 1000.69 1001.41 1001.64 1001.96 1002.58 1003.60 1003.02 1002.25 1001.41 1000.28 999.94 1000.17 1000.69 1001.56 1002.87 1004.13 1005.11
1019.86 1019.16 1018.04 1017.83 1017.67 1016.99 1016.48 1015.67 1015.17 1014.73 1013.76 1012.77 1011.55 1011.00 1009.73 1008.84 1007.61 1006.14 1004.46 1004.12 1002.52 1001.70 1000.88 1001.08 1000.83 1000.33 1000.37 1000.48 1000.27 1000.09 1000.99 1002.01 1002.20 1002.14 1001.98 1001.28 1000.79 999.67 999.27 999.95 1000.66 1001.19 1002.27 1003.43 1004.33
1019.89 1018.86 1017.74 1017.70 1017.66 1016.98 1016.43 1016.22 1015.75 1015.07 1014.47 1013.52 1012.62 1011.79 1011.04 1010.16 1009.06 1007.54 1006.07 1005.61 1004.43 1002.87 1001.80 1001.39 1000.77 1000.21 999.97 999.43 999.05 1000.13 1000.21 1000.62 1000.75 1001.42 1000.95 1000.54 999.28 998.90 998.79 999.43 1000.21 1000.62 1001.75 1002.62 1003.54
1020.71 1019.03 1018.06 1017.48 1017.53 1017.75 1016.96 1017.01 1016.47 1015.30 1014.59 1013.96 1013.49 1012.65 1011.82 1011.10 1009.95 1008.84 1007.66 1006.80 1006.28 1005.05 1002.57 1001.47 1000.69 999.98 999.29 999.05 999.04 998.74 998.88 999.58 999.71 1001.01 1001.23 1000.29 998.87 998.62 998.77 999.11 999.91 1000.53 1001.40 1002.20 1002.91
1020.77 1019.91 1018.36 1017.75 1017.74 1017.94 1017.83 1017.21 1016.52 1015.59 1014.82 1014.27 1013.64 1013.13 1012.60 1011.91 1011.16 1010.00 1008.80 1007.75 1007.09 1005.88 1004.64 1002.57 1000.98 1000.08 999.81 999.51 999.36 998.44 998.54 998.56 999.03 999.71 999.93 999.50 998.37 998.46 998.52 999.11 999.70 1000.18 1001.07 1002.10 1002.91
1021.04 1020.15 1018.96 1018.58 1019.25 1018.92 1018.50 1017.59 1016.70 1015.98 1015.32 1014.88 1014.21 1013.63 1013.11 1012.40 1011.87 1010.75 1009.88 1008.61 1007.99 1006.80 1005.57 1004.31 1002.18 1000.01 998.31 997.38 997.72 998.14 997.96 998.29 998.18 998.28 998.36 998.23 997.64 997.78 998.13 998.90 999.65 1000.03 1001.01 1001.87 1002.72
1021.22 1020.68 1020.63 1019.65 1019.51 1019.59 1019.41 1018.49 1017.33 1016.39 1015.78 1015.35 1014.53 1014.23 1014.08 1013.16 1012.32 1011.55 1010.73 1009.93 1008.52 1008.04 1006.64 1005.50 1003.12 1001.47 999.59 998.61 997.80 997.48 997.41 997.67 997.53 997.42 997.38 997.36 997.77 997.49 998.00 998.35 999.09 999.38 1000.43 1001.57 1002.38
1021.12 1021.13 1020.94 1020.31 1020.00 1019.68 1019.25 1018.59 1017.73 1017.10 1016.71 1015.83 1015.45 1015.02 1014.79 1014.30 1013.34 1012.69 1012.24 1011.30 1009.97 1008.84 1008.00 1006.68 1004.31 1002.53 1000.25 999.03 998.26 997.40 997.05 996.86 997.25 997.18 997.47 997.15 996.96 997.03 997.53 998.43 999.02 999.37 1000.06 1000.57 1001.10
1021.44 1021.41 1021.10 1020.26 1019.84 1019.57 1018.88 1018.30 1018.08 1017.90 1016.98 1016.80 1016.49 1016.08 1015.04 1014.44 1014.31 1013.75 1013.13 1012.36 1011.35 1010.79 1009.48 1007.90 1005.88 1003.60 1000.62 999.58 998.65 997.01 996.16 996.42 996.37 996.35 996.22 996.08 995.82 996.69 997.33 997.85 998.14 998.52 999.21 999.53 999.93
Thickness
5699 5704 5709 5714 5720 5727 5734 5741 5749 5755 5761 5767 5773 5781 5788 5795 5804 5809 5815 5832 5834 5830 5830 5824 5822 5820 5817 5811 5815 5815 5789 5781 5785 5783 5785 5789 5780 5782 5784 5774 5772 5773 5772 5772 5766
5697 5701 5706 5712 5718 5724 5731 5739 5746 5754 5760 5766 5773 5781 5788 5792 5802 5812 5834 5836 5835 5834 5827 5820 5813 5816 5809 5810 5810 5801 5789 5794 5808 5806 5792 5791 5788 5781 5774 5768 5760 5762 5767 5766 5765
5691 5697 5703 5709 5715 5721 5728 5735 5744 5752 5758 5764 5770 5778 5786 5791 5799 5814 5834 5834 5834 5835 5834 5830 5826 5819 5808 5814 5809 5806 5796 5806 5807 5811 5807 5794 5786 5788 5777 5765 5764 5761 5761 5763 5762
5686 5691 5697 5704 5711 5719 5726 5733 5740 5748 5756 5762 5768 5776 5783 5790 5775 5820 5830 5831 5832 5832 5829 5825 5820 5811 5809 5807 5817 5802 5810 5813 5810 5811 5803 5793 5792 5781 5780 5775 5779 5771 5768 5765 5759
5681 5686 5692 5699 5707 5715 5723 5731 5739 5746 5752 5759 5765 5772 5785 5782 5794 5822 5826 5827 5829 5826 5823 5821 5816 5815 5810 5814 5816 5808 5807 5808 5809 5805 5800 5797 5786 5779 5770 5776 5779 5770 5764 5761 5761
5676 5680 5686 5694 5702 5711 5720 5729 5737 5745 5751 5755 5760 5765 5774 5769 5816 5819 5821 5823 5826 5824 5822 5823 5821 5825 5818 5813 5813 5812 5806 5801 5803 5799 5796 5787 5779 5781 5764 5773 5768 5764 5761 5761 5760
5669 5675 5681 5688 5697 5706 5717 5727 5735 5743 5751 5754 5755 5760 5765 5789 5814 5813 5817 5819 5824 5823 5816 5825 5829 5821 5823 5811 5818 5813 5796 5795 5796 5797 5792 5796 5776 5770 5768 5768 5762 5759 5758 5756 5758
5659 5666 5674 5684 5692 5702 5713 5723 5732 5740 5748 5752 5752 5756 5766 5805 5808 5811 5815 5817 5823 5826 5824 5828 5829 5821 5820 5823 5813 5803 5802 5784 5794 5798 5797 5793 5777 5770 5771 5765 5759 5758 5756 5754 5757
5649 5656 5664 5674 5686 5698 5709 5720 5727 5732 5739 5743 5748 5752 5765 5800 5797 5811 5815 5812 5819 5822 5822 5827 5823 5812 5813 5804 5796 5793 5783 5781 5785 5803 5798 5788 5782 5779 5778 5773 5765 5764 5762 5760 5762
5636 5644 5653 5663 5675 5688 5704 5715 5720 5724 5728 5734 5743 5741 5774 5780 5795 5805 5811 5813 5810 5812 5806 5807 5805 5798 5799 5799 5779 5784 5782 5784 5787 5799 5796 5787 5789 5784 5781 5778 5773 5771 5772 5770 5769
5618 5627 5637 5649 5660 5676 5692 5705 5705 5713 5715 5727 5733 5746 5763 5775 5788 5793 5803 5802 5804 5801 5787 5799 5791 5785 5802 5812 5809 5808 5796 5789 5796 5805 5795 5794 5794 5788 5785 5783 5780 5778 5778 5778 5777
5603 5611 5619 5630 5642 5655 5669 5666 5655 5655 5685 5716 5725 5734 5751 5756 5756 5779 5796 5786 5784 5784 5795 5783 5786 5812 5814 5804 5803 5801 5794 5791 5797 5801 5796 5794 5795 5796 5791 5793 5793 5789 5787 5787 5786
5588 5597 5603 5613 5624 5631 5635 5639 5638 5647 5662 5711 5725 5739 5749 5751 5754 5769 5783 5782 5779 5779 5786 5788 5807 5811 5805 5798 5795 5798 5796 5794 5796 5796 5797 5792 5793 5790 5797 5799 5798 5800 5799 5800 5798
5577 5583 5588 5598 5608 5603 5617 5618 5625 5635 5661 5708 5717 5737 5744 5752 5753 5778 5786 5782 5772 5774 5781 5787 5803 5800 5801 5799 5806 5789 5809 5802 5794 5792 5780 5797 5784 5797 5808 5800 5801 5804 5805 5806 5805
5570 5574 5577 5580 5582 5591 5596 5603 5611 5622 5645 5701 5713 5737 5739 5743 5762 5763 5786 5775 5767 5771 5776 5779 5787 5790 5793 5809 5812 5803 5812 5802 5798 5792 5789 5786 5783 5819 5811 5803 5810 5814 5816 5816 5816
5562 5566 5568 5569 5569 5576 5578 5588 5598 5614 5627 5680 5697 5704 5717 5731 5745 5758 5760 5775 5777 5765 5771 5789 5799 5803 5814 5819 5816 5811 5797 5787 5786 5787 5770 5795 5792 5821 5813 5827 5832 5830 5826 5825 5824
5549 5554 5557 5556 5565 5564 5569 5579 5585 5593 5643 5655 5662 5680 5690 5712 5728 5741 5742 5747 5750 5734 5741 5767 5775 5796 5807 5797 5807 5807 5796 5757 5754 5757 5770 5786 5782 5821 5842 5844 5852 5845 5838 5836 5833
5536 5541 5542 5541 5543 5548 5560 5563 5563 5597 5614 5629 5643 5662 5681 5690 5715 5730 5730 5735 5757 5764 5752 5747 5739 5778 5803 5803 5798 5799 5804 5770 5740 5760 5782 5777 5786 5827 5855 5860 5860 5859 5850 5845 5840
5523 5527 5529 5527 5527 5527 5534 5536 5558 5560 5580 5603 5630 5644 5662 5674 5678 5703 5726 5736 5757 5768 5749 5746 5758 5798 5804 5815 5809 5789 5778 5814 5779 5769 5778 5798 5815 5844 5855 5851 5858 5856 5850 5848 5847
5506 5507 5515 5511 5509 5510 5510 5511 5521 5539 5559 5583 5600 5613 5631 5650 5668 5685 5715 5717 5742 5760 5778 5760 5748 5785 5799 5806 5809 5805 5817 5774 5777 5753 5754 5791 5795 5819 5847 5845 5851 5854 5850 5852 5854
5493 5505 5504 5499 5494 5498 5498 5496 5501 5520 5541 5559 5578 5594 5611 5627 5644 5663 5685 5696 5713 5735 5757 5757 5759 5769 5786 5780 5788 5786 5784 5791 5806 5791 5779 5777 5809 5853 5855 5854 5850 5861 5860 5860 5860
5473 5494 5488 5490 5491 5470 5487 5481 5486 5507 5526 5543 5559 5576 5594 5612 5628 5645 5658 5677 5693 5710 5733 5760 5761 5749 5770 5804 5813 5815 5808 5805 5785 5763 5781 5797 5812 5860 5860 5860 5861 5864 5864 5866 5867
5459 5461 5476 5479 5480 5474 5470 5477 5482 5496 5512 5527 5543 5561 5579 5594 5607 5627 5645 5669 5681 5696 5705 5743 5746 5738 5745 5770 5784 5790 5803 5816 5819 5809 5782 5788 5813 5857 5862 5857 5863 5865 5866 5863 5863
5450 5462 5467 5464 5448 5455 5455 5466 5477 5487 5499 5513 5528 5548 5562 5577 5594 5612 5626 5651 5667 5683 5700 5711 5731 5749 5754 5779 5793 5775 5794 5803 5810 5793 5802 5809 5831 5851 5859 5854 5858 5865 5864 5864 5862
5440 5446 5439 5452 5448 5440 5437 5448 5462 5476 5489 5501 5518 5526 5537 5560 5580 5598 5616 5629 5655 5661 5682 5693 5716 5737 5767 5771 5785 5792 5795 5797 5796 5814 5800 5824 5819 5845 5854 5858 5864 5874 5869 5862 5859
5439 5436 5432 5435 5431 5433 5434 5442 5452 5464 5473 5488 5497 5510 5523 5540 5562 5574 5589 5607 5626 5647 5658 5681 5705 5718 5742 5767 5770 5775 5793 5804 5802 5813 5811 5825 5828 5862 5866 5864 5858 5865 5868 5867 5870
5422 5421 5426 5431 5430 5429 5434 5442 5441 5447 5466 5470 5476 5487 5511 5528 5541 5558 5573 5586 5604 5613 5633 5658 5678 5699 5724 5752 5759 5750 5780 5790 5804 5819 5824 5812 5847 5860 5853 5855 5864 5870 5871 5875 5880